CW9676 Weather Reports


time (UTC)temp
C
wind
direction
speed
KPH
gust
KPH
rain 1hr
cm
rain 24hr
cm
rain mn
cm
humidity
%
barometer
mb
20260904051328 20 203 6.4 14.5 0.00 0.00 0.00 71 1006.5
20260904050303 20 163 6.4 14.5 0.00 0.00 0.00 70 1006.5
20260904045246 20 165 4.8 14.5 0.00 0.00 0.00 69 1006.5
20260904044256 21 195 4.8 11.3 0.00 0.00 0.00 68 1006.4
20260904043316 21 146 4.8 12.9 0.00 0.00 0.00 67 1006.4
20260904041053 21 188 6.4 14.5 0.00 0.00 0.00 66 1006.2
20260904034933 21 4 6.4 14.5 0.00 0.00 0.00 65 1006.1
20260904033946 21 175 6.4 14.5 0.00 0.00 0.00 64 1006.0
20260904033004 21 161 6.4 12.9 0.00 0.00 0.00 64 1005.9
20260904032020 21 4 4.8 9.7 0.00 0.00 0.00 63 1005.9
20260904025948 21 206 4.8 8.0 0.00 0.00 0.00 63 1005.5
20260904024948 21 4 4.8 9.7 0.00 0.00 0.00 62 1005.4
20260904023958 21 215 6.4 11.3 0.00 0.00 0.00 62 1005.3
20260904023016 22 227 6.4 11.3 0.00 0.00 0.00 62 1005.0
20260904022036 22 202 4.8 9.7 0.00 0.00 0.00 61 1004.8
20260904021051 22 190 4.8 8.0 0.00 0.00 0.00 60 1004.7
20260904020104 22 194 4.8 9.7 0.00 0.00 0.00 59 1004.5
20260904015119 23 188 6.4 16.1 0.00 0.00 0.00 56 1004.6
20260904014048 23 141 6.4 16.1 0.00 0.00 0.00 51 1004.6
20260904011847 23 155 3.2 8.0 0.00 0.00 0.00 50 1004.4
20260904010839 23 167 4.8 14.5 0.00 0.00 0.00 49 1004.4
20260904004726 24 177 0.0 0.0 0.00 0.00 0.00 50 1004.3
20260904003740 24 176 0.0 0.0 0.00 0.00 0.00 50 1004.4
20260904001616 25 93 0.0 1.6 0.00 0.00 0.00 48 1004.5
20260904000638 25 93 0.0 0.0 0.00 0.00 0.00 49 1004.5
20260903233258 25 58 3.2 8.0 0.00 0.00 0.00 50 1004.6
20260903232319 25 58 1.6 6.4 0.00 0.00 0.00 48 1004.6
20260903231336 25 57 1.6 8.0 0.00 0.00 0.00 49 1004.5
20260903230336 25 52 3.2 8.0 0.00 0.00 0.00 51 1004.5
20260903225325 26 46 3.2 8.0 0.00 0.00 0.00 46 1004.5
20260903224302 26 55 1.6 8.0 0.00 0.00 0.00 43 1004.5
20260903223238 27 32 1.6 6.4 0.00 0.00 0.00 41 1004.5
20260903222257 26 258 0.0 4.8 0.00 0.00 0.00 42 1004.4
20260903221227 26 192 1.6 4.8 0.00 0.00 0.00 43 1004.5
20260903220247 26 153 0.0 3.2 0.00 0.00 0.00 44 1004.5
20260903215306 26 67 1.6 8.0 0.00 0.00 0.00 44 1004.7
20260903214319 26 103 0.0 8.0 0.00 0.00 0.00 44 1004.8
20260903213253 25 29 1.6 1.6 0.00 0.00 0.00 43 1004.9
20260903212300 26 45 3.2 12.9 0.00 0.00 0.00 43 1005.1
20260903211244 26 145 4.8 12.9 0.00 0.00 0.00 42 1005.0
20260903210230 26 78 3.2 14.5 0.00 0.00 0.00 41 1005.2
20260903205217 26 100 6.4 14.5 0.00 0.00 0.00 42 1005.2
20260903204234 28 129 4.8 12.9 0.00 0.00 0.00 38 1005.2
20260903203223 28 317 6.4 12.9 0.00 0.00 0.00 40 1005.2
20260903201058 27 359 4.8 16.1 0.00 0.00 0.00 45 1005.7
20260903200107 26 4 4.8 14.5 0.00 0.00 0.00 48 1005.7
20260903195046 25 111 4.8 14.5 0.00 0.00 0.00 51 1006.0
20260903194046 24 166 4.8 8.0 0.00 0.00 0.00 53 1006.1
20260903193026 23 193 3.2 8.0 0.00 0.00 0.00 61 1006.1
20260903192034 22 142 4.8 11.3 0.00 0.00 0.00 64 1006.2
20260903191046 22 191 6.4 12.9 0.00 0.00 0.00 62 1006.3
20260903190045 22 177 9.7 17.7 0.00 0.00 0.00 61 1006.4
20260903183912 23 186 9.7 20.9 0.00 0.00 0.00 58 1006.9
20260903182912 23 145 8.0 17.7 0.00 0.00 0.00 55 1006.9
20260903181912 23 215 4.8 17.7 0.00 0.00 0.00 56 1007.0
20260903180905 23 4 8.0 17.7 0.00 0.00 0.00 56 1007.1
20260903175913 23 256 8.0 16.1 0.00 0.00 0.00 57 1007.1
20260903173717 22 4 6.4 14.5 0.00 0.00 0.00 61 1007.1
20260903172722 22 221 4.8 14.5 0.00 0.00 0.00 65 1007.2
20260903171717 21 161 6.4 14.5 0.00 0.00 0.00 64 1007.2
20260903170709 21 225 6.4 14.5 0.00 0.00 0.00 65 1007.0
20260903165656 21 191 8.0 14.5 0.00 0.00 0.00 63 1007.0
20260903164709 22 195 4.8 11.3 0.00 0.00 0.00 56 1007.0
20260903163638 22 172 4.8 16.1 0.00 0.00 0.00 55 1006.8
20260903162647 23 176 4.8 16.1 0.00 0.00 0.00 55 1006.8
20260903161655 22 220 3.2 9.7 0.00 0.00 0.00 57 1006.9
20260903160702 22 163 3.2 8.0 0.00 0.00 0.00 59 1006.9
20260903154445 21 175 4.8 12.9 0.00 0.00 0.00 61 1006.9
20260903153429 21 186 3.2 9.7 0.00 0.00 0.00 64 1006.8
20260903152436 21 167 3.2 8.0 0.00 0.00 0.00 64 1006.9
20260903151421 21 162 4.8 11.3 0.00 0.00 0.00 67 1006.9
20260903150406 20 199 6.4 17.7 0.00 0.00 0.00 69 1006.6
20260903145431 20 210 9.7 17.7 0.00 0.00 0.00 70 1006.7
20260903144426 20 164 6.4 14.5 0.00 0.00 0.00 71 1006.6
20260903143407 20 221 9.7 17.7 0.00 0.00 0.00 72 1006.5
20260903142417 20 223 9.7 17.7 0.00 0.00 0.00 72 1006.5
20260903135145 19 215 8.0 14.5 0.00 0.00 0.00 71 1006.6
20260903134137 19 215 6.4 11.3 0.00 0.00 0.00 72 1006.5
20260903133147 18 242 4.8 8.0 0.00 0.00 0.00 72 1006.6
20260903132209 18 226 3.2 8.0 0.00 0.00 0.00 72 1006.6
20260903131158 18 4 4.8 8.0 0.00 0.00 0.00 71 1006.6
20260903130217 18 202 3.2 8.0 0.00 0.00 0.00 70 1006.4
20260903125206 18 184 3.2 9.7 0.00 0.00 0.00 68 1006.4
20260903124221 18 182 3.2 9.7 0.00 0.00 0.00 68 1006.3
20260903123150 18 187 3.2 6.4 0.00 0.00 0.00 66 1006.2
20260903122141 18 185 3.2 9.7 0.00 0.00 0.00 64 1006.1
20260903121131 19 190 4.8 9.7 0.00 0.00 0.00 64 1006.0
20260903120146 19 200 4.8 9.7 0.00 0.00 0.00 63 1005.7
20260903115121 19 210 4.8 11.3 0.00 0.00 0.00 62 1005.5
20260903114132 19 184 6.4 11.3 0.00 0.00 0.00 62 1005.4
20260903113146 19 215 4.8 12.9 0.00 0.00 0.00 62 1005.2
20260903112158 19 221 8.0 12.9 0.00 0.00 0.00 61 1005.1
20260903111204 19 210 4.8 11.3 0.00 0.00 0.00 61 1005.0
20260903105017 20 225 4.8 8.0 0.00 0.00 0.00 60 1005.2
20260903104011 20 209 4.8 12.9 0.00 0.00 0.00 60 1005.2
20260903101854 20 206 8.0 16.1 0.00 0.00 0.00 59 1005.4
20260903094602 20 194 4.8 11.3 0.00 0.00 0.00 59 1005.6
20260903093558 20 185 6.4 16.1 0.00 0.00 0.00 58 1005.5
20260903092554 21 186 8.0 16.1 0.00 0.00 0.00 57 1005.5
20260903091531 21 202 6.4 14.5 0.00 0.00 0.00 57 1005.5
20260903090527 21 173 6.4 12.9 0.00 0.00 0.00 56 1005.6
20260903085512 21 161 4.8 8.0 0.00 0.00 0.00 55 1005.7
20260903084527 21 154 4.8 12.9 0.00 0.00 0.00 54 1005.5
20260903083528 21 148 6.4 12.9 0.00 0.00 0.00 54 1005.5
20260903082510 21 196 6.4 12.9 0.00 0.00 0.00 54 1005.6
20260903081450 21 179 6.4 11.3 0.00 0.00 0.00 54 1005.9
20260903080434 21 194 4.8 11.3 0.00 0.00 0.00 53 1006.0
20260903075422 21 225 4.8 9.7 0.00 0.00 0.00 53 1006.1
20260903074359 21 207 4.8 9.7 0.00 0.00 0.00 52 1005.9
20260903073412 21 204 4.8 9.7 0.00 0.00 0.00 52 1006.0
20260903072437 21 183 4.8 9.7 0.00 0.00 0.00 51 1006.0
20260903071423 21 210 4.8 9.7 0.00 0.00 0.00 51 1006.0
20260903070447 21 215 4.8 9.7 0.00 0.00 0.00 50 1006.1
20260903065436 21 183 6.4 14.5 0.00 0.00 0.00 50 1006.1
20260903064411 22 202 8.0 14.5 0.00 0.00 0.00 50 1006.0
20260903063404 22 212 6.4 12.9 0.00 0.00 0.00 50 1006.1
20260903062343 22 172 6.4 12.9 0.00 0.00 0.00 49 1006.2
20260903061312 22 182 4.8 12.9 0.00 0.00 0.00 48 1006.3
20260903060247 22 173 4.8 11.3 0.00 0.00 0.00 46 1006.3
20260903054121 23 192 4.8 12.9 0.00 0.00 0.00 44 1006.3
20260903053103 23 165 6.4 12.9 0.00 0.00 0.00 42 1006.3